VINASAT 1

导读 | 星芒AI

VINASAT 1 是越南首颗自主研发的通信卫星,于2008年4月由阿丽亚娜5型火箭发射升空。该卫星位于东经132度的轨道位置,主要提供固定卫星业务、广播和移动通信服务,覆盖东南亚及周边地区。VINASAT 1 的成功发射标志着越南在航天技术领域的重大突破,提升了国家的通信能力和媒体传播能力,对促进国家信息化和经济发展具有重要意义。

基本信息
目录编号:
32767
目录名称:
VINASAT 1
国际标识:
2008-018A
轨道中心:
EARTH
卫星名称:
VINASAT 1
卫星全名:
--
卫星状态:
在轨 (已飞行6450 天)
发射日期:
2008-04-18 UTC
国别 :
越南 (VN)
星等 :
--
轨道信息
数据来源 国际轨道数据 AOE轨道数据
星历时间 2025-12-15T06:36:23+0800
19小时前
查看轨道信息
2025-12-15T19:00:00+0800
7小时前
查看轨道信息
半长轴 42164.756km 42164.812km
偏心率 0.0001841 0.0001811
轨道倾角 0.009° 0.009°
近地点辐角 306.955° 297.343°
升交点赤经 335.225° 346.011°
平近点角 272.726° 97.963°
近地点 35778.858km 35779.04km
远地点 35794.384km 35794.314km
周期 1436.098分钟 1436.101分钟
每日圈数 1.002717 1.002715
详细信息
使用方式:
暂无
2D轨道图
3D轨道图
轨道高度分析图
轨道倾角分析图
轨道综合分析图
查看轨道综合分析图